Flag for Kazakhstan Weather past 2 weeks in Astana, Kazakhstan

27 °F

Mostly cloudy.

Feels Like: 16 °F
Forecast: 19 / 23 °F
Wind: 13 mph from West

Location: Astana

Current Time: Nov 29, 2015 at 9:10:03 PM

Latest Report: Nov 29, 2015 at 8:30 PM

Visibility: N/A

Pressure: 30.15 "Hg

Humidity: 86%

Dew point: 23 °F

Location of AstanaLocation

Historic Weather in Astana — Graph


Astana temperature yesterday

Maximum temperature yesterday: 36 °F (at 5:00 AM)
Minimum temperature yesterday: 25 °F (at 11:30 PM)
Average temperature yesterday: 31 °F

Past Weeks' High & Low Weather Summary

High36 °F (Nov 28, 5:00 AM)100% (Nov 25, 6:00 PM)30.66 "Hg (Nov 25, 6:00 PM)
Low-22 °F (Nov 22, 2:00 AM)51% (Nov 24, 12:00 PM)29.68 "Hg (Nov 28, 10:30 AM)
Average15 °F82%30.23 "Hg
* Reported Nov 14 8:00 PM — Nov 29 8:00 PM, Astana, Weather by CustomWeather, © 2015

Note: Actual official high and low records may vary slightly from our data, if they occured in-between our weather recording intervals... More about our weather records


Astana weather history for previous 24 hours

Time TempWeatherWind HumidityBarometerVisibility
8:00 PM
Sun, Nov 29
27 °FMostly cloudy.15 mph86%30.15 "HgN/A
7:30 PM27 °FMostly cloudy.13 mph86%30.15 "HgN/A
7:00 PM27 °FPartly cloudy.13 mph80%30.12 "HgN/A
6:30 PM27 °FPartly cloudy.13 mph80%30.12 "HgN/A
6:00 PM27 °FBroken clouds.15 mph80%30.12 "HgN/A
5:30 PM27 °FBroken clouds.17 mph80%30.09 "HgN/A
5:00 PM27 °FBroken clouds.20 mph80%30.09 "HgN/A
4:30 PM27 °FSunny.17 mph80%30.09 "Hg10 mi
3:30 PM25 °FPartly sunny.15 mph86%30.07 "HgN/A
3:00 PM25 °FBroken clouds.17 mph80%30.07 "HgN/A
2:30 PM25 °FBroken clouds.22 mph80%30.07 "HgN/A
2:00 PM25 °FBroken clouds.20 mph80%30.07 "HgN/A
12:30 PM21 °FBroken clouds.17 mph86%30.04 "HgN/A
12:00 PM21 °FBroken clouds.20 mph86%30.04 "HgN/A
11:00 AM19 °FMostly cloudy.20 mph93%30.01 "HgN/A
10:30 AM21 °FMostly cloudy.17 mph86%30.01 "HgN/A
10:00 AM21 °FMostly cloudy.20 mph86%29.98 "HgN/A
9:30 AM21 °FLow clouds.17 mph93%29.98 "HgN/A
9:00 AM23 °FLow clouds.15 mph86%29.98 "HgN/A
8:30 AM23 °FLow clouds.15 mph86%29.95 "HgN/A
8:00 AM23 °FLow clouds.15 mph93%29.95 "HgN/A
7:30 AM23 °FLow clouds.17 mph86%29.92 "HgN/A
7:00 AM25 °FLow clouds.17 mph86%29.89 "Hg5 mi
6:30 AM25 °FLow clouds.20 mph86%29.89 "Hg4 mi
5:30 AM25 °FLight snow. Overcast.17 mph86%29.86 "Hg4 mi
5:00 AM25 °FLight snow. Overcast.17 mph86%29.83 "Hg3 mi
4:00 AM25 °FSnow. Overcast.17 mph93%29.80 "Hg2 mi
3:30 AM25 °FSnow. Low clouds.17 mph93%29.80 "Hg2 mi
3:00 AM25 °FSnow. Low clouds.17 mph93%29.77 "Hg2 mi
2:30 AM25 °FSnow. Low clouds.20 mph93%29.77 "Hg2 mi
2:00 AM25 °FSnow. Low clouds.22 mph93%29.74 "Hg2 mi
1:30 AM25 °FSnow. Low clouds.22 mph93%29.74 "Hg2 mi
1:00 AM25 °FSnow. Low clouds.20 mph93%29.74 "Hg1 mi
12:30 AM25 °FSnow. Low clouds.22 mph93%29.74 "Hg2 mi
12:00 AM25 °FSnow. Low clouds.22 mph93%29.74 "Hg1 mi
11:30 PM
Sat, Nov 28
25 °FLight snow. Low clouds.22 mph93%29.74 "Hg4 mi
11:00 PM27 °FLow clouds.20 mph86%29.74 "Hg6 mi
10:30 PM27 °FLight snow. Mostly cloudy.20 mph86%29.74 "Hg6 mi
10:00 PM27 °FLight snow. Mostly cloudy.17 mph93%29.74 "Hg3 mi
9:30 PM27 °FSnow. Mostly cloudy.17 mph93%29.74 "Hg1 mi
9:00 PM27 °FHeavy snow. Mostly cloudy.20 mph93%29.74 "Hg1 mi
Weather by CustomWeather, © 2015

See weather overviewHow to use our weather pages